FW3873 Weather Reports


time (UTC)temp
F
wind
direction
speed
knots
gust
knots
rain 1hr
in
rain 24hr
in
rain mn
in
humidity
%
barometer
mb
20260505153150 74 243 6.1 15.6 0.00 0.00 0.00 46 1019.3
20260505152652 74 252 3.5 11.3 0.00 0.00 0.00 49 1019.3
20260505152153 74 229 2.6 12.2 0.00 0.00 0.00 49 1019.3
20260505151929 73 192 1.7 12.2 0.00 0.00 0.00 49 1019.3
20260505151424 74 220 0.9 7.0 0.00 0.00 0.00 52 1019.5
20260505150645 73 206 0.0 6.1 0.00 0.00 0.00 52 1019.1
20260505150146 72 167 0.0 4.3 0.00 0.00 0.00 57 1019.1
20260505140637 69 344 0.0 0.0 0.00 0.00 0.00 64 1019.1
20260505140131 68 335 0.0 0.0 0.00 0.00 0.00 64 1018.9
20260505124539 57 75 0.0 0.0 0.00 0.00 0.00 85 1018.6
20260505124037 56 75 0.0 0.0 0.00 0.00 0.00 86 1018.6
20260505123536 55 75 0.0 0.0 0.00 0.00 0.00 88 1018.5
20260505123035 54 76 0.0 0.0 0.00 0.00 0.00 88 1018.4
20260505122531 53 76 0.0 0.0 0.00 0.00 0.00 89 1018.5
20260505122323 52 205 0.0 0.0 0.00 0.00 0.00 88 1018.3
20260505121530 52 206 0.0 0.0 0.00 0.00 0.00 88 1018.2
20260505121032 51 205 0.0 0.0 0.00 0.00 0.00 89 1018.3
20260505120529 50 205 0.0 0.0 0.00 0.00 0.00 89 1018.2
20260505120031 50 205 0.0 0.0 0.00 0.00 0.00 89 1018.3
20260505115529 50 205 0.0 0.0 0.00 0.00 0.00 89 1018.3
20260505115030 50 205 0.0 0.0 0.00 0.00 0.00 89 1018.3
20260505114529 50 206 0.0 0.0 0.00 0.00 0.00 89 1018.2
20260505114029 50 205 0.0 0.0 0.00 0.00 0.00 89 1018.0
20260505113529 49 205 0.0 0.0 0.00 0.00 0.00 89 1017.9
20260505113030 49 205 0.0 0.0 0.00 0.00 0.00 89 1017.9
20260505112528 48 205 0.0 0.0 0.00 0.00 0.00 89 1017.7
20260505112029 48 205 0.0 0.0 0.00 0.00 0.00 89 1017.8
20260505111525 48 205 0.0 0.0 0.00 0.00 0.00 89 1017.8
20260505111024 48 206 0.0 0.0 0.00 0.00 0.00 89 1017.7
20260505110525 48 206 0.0 0.0 0.00 0.00 0.00 89 1017.8
20260505102007 48 206 0.0 0.0 0.00 0.00 0.00 88 1017.6
20260505101507 48 206 0.0 0.0 0.00 0.00 0.00 88 1017.6
20260505101003 47 206 0.0 0.0 0.00 0.00 0.00 88 1017.6
20260505100502 48 206 0.0 0.0 0.00 0.00 0.00 87 1017.7
20260505100004 48 206 0.0 0.0 0.00 0.00 0.00 88 1017.7
20260505095503 49 206 0.0 0.0 0.00 0.00 0.00 88 1017.8
20260505095005 49 206 0.0 0.0 0.00 0.00 0.00 88 1017.8
20260505094504 49 206 0.0 0.0 0.00 0.00 0.00 88 1017.8
20260505094003 49 206 0.0 0.0 0.00 0.00 0.00 88 1017.8
20260505093457 49 206 0.0 0.0 0.00 0.00 0.00 88 1017.7
20260505092955 49 206 0.0 0.0 0.00 0.00 0.00 89 1017.7
20260505092454 48 206 0.0 0.0 0.00 0.00 0.00 89 1017.4
20260505092414 48 206 0.0 0.0 0.00 0.00 0.00 89 1017.6
20260505092338 48 206 0.0 0.0 0.00 0.00 0.00 89 1017.6
20260505090954 48 206 0.0 0.0 0.00 0.00 0.00 89 1017.7
20260505090453 48 206 0.0 0.0 0.00 0.00 0.00 88 1017.7
20260505085953 48 206 0.0 0.0 0.00 0.00 0.00 88 1017.8
20260505085453 48 206 0.0 0.0 0.00 0.00 0.00 88 1017.8
20260505084953 48 206 0.0 0.0 0.00 0.00 0.00 88 1017.9
20260505084450 48 206 0.0 0.0 0.00 0.00 0.00 88 1017.9
20260505083951 48 206 0.0 0.0 0.00 0.00 0.00 88 1018.0
20260505083735 48 206 0.0 0.0 0.00 0.00 0.00 88 1018.1
20260505082953 48 206 0.0 0.0 0.00 0.00 0.00 87 1018.0
20260505082732 48 206 0.0 0.0 0.00 0.00 0.00 87 1017.9
20260505081949 48 206 0.0 0.0 0.00 0.00 0.00 87 1017.8
20260505081451 49 206 0.0 0.0 0.00 0.00 0.00 87 1017.9
20260505080945 48 206 0.0 0.0 0.00 0.00 0.00 87 1017.8
20260505080544 49 206 0.0 0.0 0.00 0.00 0.00 87 1017.9
20260505080452 48 206 0.0 0.0 0.00 0.00 0.00 87 1017.8
20260505075715 49 206 0.0 0.0 0.00 0.00 0.00 87 1017.9
20260505074933 49 206 0.0 0.0 0.00 0.00 0.00 86 1017.8
20260505074430 49 206 0.0 0.0 0.00 0.00 0.00 86 1017.9
20260505073931 49 206 0.0 0.0 0.00 0.00 0.00 86 1017.9
20260505073432 49 206 0.0 0.0 0.00 0.00 0.00 86 1017.8
20260505072929 49 206 0.0 0.0 0.00 0.00 0.00 86 1017.9
20260505072547 49 206 0.0 0.0 0.00 0.00 0.00 85 1017.9
20260505072445 49 206 0.0 0.0 0.00 0.00 0.00 85 1017.8
20260505071431 50 206 0.0 0.0 0.00 0.00 0.00 85 1017.9
20260505070926 50 206 0.0 0.0 0.00 0.00 0.00 85 1017.9
20260505070427 50 206 0.0 0.0 0.00 0.00 0.00 85 1017.8
20260505065926 50 206 0.0 0.0 0.00 0.00 0.00 84 1017.9
20260505065706 50 206 0.0 0.0 0.00 0.00 0.00 84 1017.9
20260505065215 50 206 0.0 0.0 0.00 0.00 0.00 84 1017.8
20260505064427 51 206 0.0 0.0 0.00 0.00 0.00 83 1017.8
20260505063925 51 206 0.0 0.0 0.00 0.00 0.00 84 1017.8
20260505063424 51 206 0.0 0.0 0.00 0.00 0.00 83 1017.9
20260505062926 51 206 0.0 0.0 0.00 0.00 0.00 82 1018.0
20260505062427 51 206 0.0 0.0 0.00 0.00 0.00 82 1018.0
20260505061924 51 206 0.0 0.0 0.00 0.00 0.00 81 1018.0
20260505061712 51 206 0.0 0.0 0.00 0.00 0.00 81 1018.1
20260505060927 52 206 0.0 0.0 0.00 0.00 0.00 80 1018.0
20260505060425 52 206 0.0 0.0 0.00 0.00 0.00 80 1018.0
20260505055925 52 206 0.0 0.0 0.00 0.00 0.00 80 1017.9
20260505055426 52 206 0.0 0.0 0.00 0.00 0.00 80 1018.0
20260505054933 52 206 0.0 0.0 0.00 0.00 0.00 80 1018.0
20260505054431 53 206 0.0 0.0 0.00 0.00 0.00 80 1017.9
20260505053928 53 206 0.0 0.0 0.00 0.00 0.00 79 1018.1
20260505053655 53 206 0.0 0.0 0.00 0.00 0.00 79 1018.1
20260505052920 53 206 0.0 0.0 0.00 0.00 0.00 79 1018.1
20260505052417 54 206 0.0 0.0 0.00 0.00 0.00 79 1018.1
20260505051914 54 206 0.0 0.0 0.00 0.00 0.00 79 1018.1
20260505051415 54 206 0.0 0.0 0.00 0.00 0.00 78 1018.1
20260505050911 54 206 0.0 0.0 0.00 0.00 0.00 78 1018.2
20260505050409 54 206 0.0 0.0 0.00 0.00 0.00 77 1018.2
20260505041638 57 206 0.0 0.0 0.00 0.00 0.00 67 1017.9
20260505040902 58 206 0.0 0.0 0.00 0.00 0.00 65 1018.0
20260505040400 59 206 0.0 0.0 0.00 0.00 0.00 65 1018.1
20260505035902 59 206 0.0 0.0 0.00 0.00 0.00 65 1018.0
20260505035400 59 206 0.0 0.0 0.00 0.00 0.00 63 1018.0
20260505034859 59 206 0.0 0.0 0.00 0.00 0.00 64 1017.9
20260505034636 59 206 0.0 0.0 0.00 0.00 0.00 64 1018.1
20260505033856 58 205 0.0 0.0 0.00 0.00 0.00 68 1018.1
20260505033355 57 205 0.0 0.0 0.00 0.00 0.00 71 1018.1
20260505033141 56 205 0.0 0.0 0.00 0.00 0.00 73 1018.1
20260505032351 55 205 0.0 0.0 0.00 0.00 0.00 73 1018.1
20260505031852 55 205 0.0 0.0 0.00 0.00 0.00 73 1018.1
20260505031349 56 205 0.0 0.0 0.00 0.00 0.00 72 1018.1
20260505030849 56 205 0.0 0.0 0.00 0.00 0.00 71 1018.1
20260505030347 56 205 0.0 0.0 0.00 0.00 0.00 70 1018.2
20260505025845 56 205 0.0 0.0 0.00 0.00 0.00 70 1018.2
20260505025343 57 205 0.0 0.0 0.00 0.00 0.00 70 1018.2
20260505024839 57 205 0.0 0.0 0.00 0.00 0.00 68 1018.2
20260505024337 58 205 0.0 0.0 0.00 0.00 0.00 67 1018.2
20260505023835 58 205 0.0 0.0 0.00 0.00 0.00 66 1018.1
20260505023333 59 205 0.0 0.0 0.00 0.00 0.00 63 1018.0
20260505022831 59 205 0.0 0.0 0.00 0.00 0.00 63 1017.9
20260505022330 59 205 0.0 0.0 0.00 0.00 0.00 64 1017.9
20260505021829 59 205 0.0 0.0 0.00 0.00 0.00 65 1017.9
20260505021331 59 205 0.0 0.0 0.00 0.00 0.00 64 1017.9
20260505021121 59 205 0.0 0.0 0.00 0.00 0.00 64 1017.9
20260505020443 61 205 0.0 0.0 0.00 0.00 0.00 59 1017.9
20260505020350 60 205 0.0 0.0 0.00 0.00 0.00 62 1017.9
20260505015327 62 205 0.0 0.0 0.00 0.00 0.00 57 1017.9
20260505015107 61 205 0.0 0.0 0.00 0.00 0.00 58 1017.9
20260505014325 61 205 0.0 0.0 0.00 0.00 0.00 60 1017.7
20260505013823 61 205 0.0 0.0 0.00 0.00 0.00 61 1017.7
20260505013322 61 205 0.0 0.0 0.00 0.00 0.00 61 1017.6
20260505012819 62 205 0.0 0.0 0.00 0.00 0.00 58 1017.7
20260505012556 62 205 0.0 0.0 0.00 0.00 0.00 59 1017.6
20260505012134 62 205 0.0 0.0 0.00 0.00 0.00 58 1017.6
20260505011319 62 205 0.0 0.0 0.00 0.00 0.00 57 1017.5
20260505010818 63 205 0.0 0.0 0.00 0.00 0.00 57 1017.5
20260505010317 63 205 0.0 0.0 0.00 0.00 0.00 57 1017.5
20260505005817 64 205 0.0 0.0 0.00 0.00 0.00 55 1017.5
20260505005317 65 205 0.0 0.0 0.00 0.00 0.00 52 1017.4
20260505004817 65 205 0.0 0.0 0.00 0.00 0.00 52 1017.4
20260505004557 66 205 0.0 0.0 0.00 0.00 0.00 51 1017.3
20260505003816 67 205 0.0 0.0 0.00 0.00 0.00 51 1017.3
20260505003458 68 205 0.0 0.0 0.00 0.00 0.00 48 1017.2
20260505003356 68 205 0.0 0.0 0.00 0.00 0.00 49 1017.2
20260505002315 69 205 0.0 0.0 0.00 0.00 0.00 47 1017.2
20260505002107 70 205 0.0 0.0 0.00 0.00 0.00 47 1017.2
20260505001314 71 205 0.0 0.0 0.00 0.00 0.00 43 1017.2
20260505000812 71 205 0.0 0.0 0.00 0.00 0.00 42 1017.2
20260505000313 72 205 0.0 0.0 0.00 0.00 0.00 40 1017.2
20260505000059 72 198 0.0 3.5 0.00 0.00 0.00 39 1017.2
20260504235310 73 211 0.0 3.5 0.00 0.00 0.00 39 1017.2
20260504234810 73 200 0.0 5.2 0.00 0.00 0.00 38 1017.2
20260504234309 74 203 0.9 5.2 0.00 0.00 0.00 39 1017.1
20260504233808 74 204 0.0 5.2 0.00 0.00 0.00 39 1017.1
20260504233308 74 231 0.9 3.5 0.00 0.00 0.00 38 1017.0
20260504232808 74 195 0.9 3.5 0.00 0.00 0.00 39 1017.1
20260504232424 75 223 0.9 4.3 0.00 0.00 0.00 37 1017.0
20260504232329 74 198 0.0 3.5 0.00 0.00 0.00 38 1017.1
20260504231305 75 214 0.9 7.8 0.00 0.00 0.00 37 1017.1
20260504230806 75 261 2.6 8.7 0.00 0.00 0.00 36 1016.9
20260504230306 75 198 2.6 8.7 0.00 0.00 0.00 34 1017.0
20260504225804 76 215 2.6 7.0 0.00 0.00 0.00 34 1017.0
20260504225543 76 221 3.5 8.7 0.00 0.00 0.00 34 1017.1
20260504224804 76 221 3.5 8.7 0.00 0.00 0.00 32 1017.2
20260504224303 76 225 1.7 7.0 0.00 0.00 0.00 36 1017.2
20260504223802 76 152 0.9 6.1 0.00 0.00 0.00 37 1017.2
20260504223535 76 211 2.6 9.6 0.00 0.00 0.00 36 1017.2
20260504222802 76 197 2.6 10.4 0.00 0.00 0.00 37 1017.2
20260504222301 77 178 2.6 10.4 0.00 0.00 0.00 36 1017.2
20260504221800 77 225 3.5 7.8 0.00 0.00 0.00 39 1017.3
20260504221538 77 218 1.7 7.8 0.00 0.00 0.00 37 1017.2
20260504220750 78 225 1.7 8.7 0.00 0.00 0.00 38 1017.2
20260504220244 78 231 0.9 8.7 0.00 0.00 0.00 37 1017.1
20260504215739 78 178 0.9 7.0 0.00 0.00 0.00 38 1017.2
20260504215238 76 203 1.7 7.8 0.00 0.00 0.00 39 1017.2
20260504214738 76 157 1.7 7.8 0.00 0.00 0.00 40 1017.3
20260504214508 76 157 2.6 7.8 0.00 0.00 0.00 39 1017.2
20260504213736 76 169 4.3 9.6 0.00 0.00 0.00 40 1017.3
20260504213235 76 217 3.5 9.6 0.00 0.00 0.00 38 1017.3
20260504212734 78 212 1.7 7.0 0.00 0.00 0.00 39 1017.2
20260504212231 77 200 0.9 6.1 0.00 0.00 0.00 37 1017.0
20260504211730 76 192 1.7 8.7 0.00 0.00 0.00 36 1017.1
20260504211229 77 241 1.7 8.7 0.00 0.00 0.00 37 1017.1
20260504211035 77 213 0.0 4.3 0.00 0.00 0.00 37 1017.2
20260504210230 77 317 0.0 0.9 0.00 0.00 0.00 37 1017.3
20260504205730 77 231 0.0 4.3 0.00 0.00 0.00 35 1017.3
20260504205231 77 171 0.0 4.3 0.00 0.00 0.00 36 1017.3
20260504204731 77 224 1.7 7.0 0.00 0.00 0.00 36 1017.3
20260504204232 78 214 3.5 7.8 0.00 0.00 0.00 36 1017.3
20260504203728 77 249 1.7 7.8 0.00 0.00 0.00 36 1017.5
20260504203229 78 286 0.0 6.1 0.00 0.00 0.00 36 1017.4
20260504202729 77 223 0.0 0.0 0.00 0.00 0.00 37 1017.5
20260504202224 77 325 0.0 0.0 0.00 0.00 0.00 37 1017.5
20260504202007 77 228 0.0 0.0 0.00 0.00 0.00 40 1017.5
20260504201216 77 229 0.0 0.0 0.00 0.00 0.00 37 1017.6
20260504200716 78 220 0.0 1.7 0.00 0.00 0.00 35 1017.6
20260504200214 78 246 0.0 5.2 0.00 0.00 0.00 35 1017.7
20260504195710 77 209 0.9 5.2 0.00 0.00 0.00 37 1017.7
20260504195209 77 221 1.7 6.1 0.00 0.00 0.00 38 1017.8
20260504194708 77 315 1.7 7.0 0.00 0.00 0.00 39 1017.8
20260504194453 77 223 0.9 7.0 0.00 0.00 0.00 37 1017.9
20260504193708 76 210 0.9 7.0 0.00 0.00 0.00 39 1017.9
20260504193208 77 261 0.9 7.0 0.00 0.00 0.00 37 1017.9
20260504192708 78 231 0.0 5.2 0.00 0.00 0.00 39 1018.0
20260504192208 77 244 0.0 2.6 0.00 0.00 0.00 38 1017.9
20260504191708 78 198 0.0 3.5 0.00 0.00 0.00 44 1018.1
20260504191503 77 259 0.9 7.0 0.00 0.00 0.00 47 1018.1
20260504190707 76 281 2.6 7.0 0.00 0.00 0.00 43 1018.3
20260504190204 76 242 3.5 8.7 0.00 0.00 0.00 41 1018.4
20260504185704 77 247 1.7 8.7 0.00 0.00 0.00 40 1018.5
20260504185204 77 269 1.7 7.0 0.00 0.00 0.00 40 1018.5
20260504184702 76 272 2.6 7.8 0.00 0.00 0.00 40 1018.6
20260504184201 77 229 0.9 5.2 0.00 0.00 0.00 40 1018.8
20260504183658 77 355 0.9 6.1 0.00 0.00 0.00 38 1018.8
20260504183153 76 272 0.9 6.1 0.00 0.00 0.00 39 1018.7
20260504182646 76 0 2.6 7.8 0.00 0.00 0.00 42 1018.8
20260504182141 76 272 2.6 7.8 0.00 0.00 0.00 39 1018.9
20260504181635 75 25 0.9 4.3 0.00 0.00 0.00 38 1018.9
20260504181133 76 234 0.9 4.3 0.00 0.00 0.00 43 1019.0
20260504180634 75 243 1.7 6.1 0.00 0.00 0.00 39 1019.2
20260504180133 75 282 2.6 6.1 0.00 0.00 0.00 40 1019.3
20260504175631 77 261 2.6 6.1 0.00 0.00 0.00 40 1019.3
20260504175410 77 205 2.6 6.1 0.00 0.00 0.00 42 1019.5
20260504174629 76 288 2.6 7.0 0.00 0.00 0.00 45 1019.6
20260504174130 74 174 3.5 7.0 0.00 0.00 0.00 42 1019.6
20260504173628 74 160 2.6 6.1 0.00 0.00 0.00 44 1019.7
20260504173129 75 236 2.6 6.1 0.00 0.00 0.00 45 1019.7
20260504172628 74 272 2.6 7.8 0.00 0.00 0.00 41 1019.9
20260504172130 74 237 2.6 7.8 0.00 0.00 0.00 42 1019.9
20260504171914 73 212 2.6 6.1 0.00 0.00 0.00 41 1019.9
20260504171129 73 264 1.7 3.5 0.00 0.00 0.00 42 1019.9
20260504170628 73 257 2.6 7.0 0.00 0.00 0.00 43 1020.1
20260504170131 73 258 3.5 7.0 0.00 0.00 0.00 42 1020.2
20260504160120 71 259 2.6 6.1 0.00 0.00 0.00 47 1020.7